Stations météo

Publicité
Plaisance, Iles Maurice (61990): Température de l'air & dewpoint: 06.12.2018 22:00:00 - 12.12.2018 22:00:00 (MUT)Plaisance, Iles Maurice (61990): Vitesse du vent: 06.12.2018 22:00:00 - 12.12.2018 22:00:00 (MUT)Plaisance, Iles Maurice (61990): Direction du vent: 06.12.2018 22:00:00 - 12.12.2018 22:00:00 (MUT)Plaisance, Iles Maurice (61990): reduced air pressure: 06.12.2018 22:00:00 - 12.12.2018 22:00:00 (MUT)Plaisance, Iles Maurice (61990): visibility: 06.12.2018 22:00:00 - 12.12.2018 22:00:00 (MUT)
Date & Time tt [°C] td [°C] ff [km/h] ff [knt] dd ppp [hPa] vv [km]
12.12.2018 22:00:00 26,1 21,4 13 7 E 1019,8 10
12.12.2018 21:00:00 26,0 22,0 11 6 E - 10
12.12.2018 20:00:00 26,0 22,0 11 6 E - 10
12.12.2018 19:00:00 27,1 21,6 11 6 E 1018,4 10
12.12.2018 18:00:00 28,0 22,0 16 9 E - 10
12.12.2018 17:00:00 29,0 22,0 16 9 E - 10
12.12.2018 16:00:00 28,5 22,2 18 10 ESE 1016,6 10
12.12.2018 15:00:00 29,0 22,0 18 10 E - 10
12.12.2018 14:00:00 29,0 23,0 22 12 ENE - 10
12.12.2018 13:00:00 29,0 22,7 18 10 E 1017,0 10
12.12.2018 12:00:00 29,0 23,0 16 9 E - 10
12.12.2018 11:00:00 29,0 23,0 21 11 ENE - 10
12.12.2018 10:00:00 29,0 23,1 18 10 ENE 1017,8 10
12.12.2018 09:00:00 29,0 23,0 18 10 ENE - 10
12.12.2018 08:00:00 28,0 23,0 18 10 ENE - 10
12.12.2018 07:00:00 26,5 23,6 13 7 E 1017,7 10
12.12.2018 06:00:00 24,0 23,0 2 1 - - 10
12.12.2018 05:00:00 25,0 23,0 5 3 N - 10
12.12.2018 04:00:00 24,7 23,4 9 5 NE 1016,6 6
12.12.2018 03:00:00 24,0 23,0 0 0 N - 10
12.12.2018 02:00:00 25,0 22,0 2 1 - - 10
12.12.2018 01:00:00 26,0 22,0 8 4 NE - 10
12.12.2018 00:00:00 26,0 23,0 13 7 NE - 10
11.12.2018 23:00:00 26,0 22,0 11 6 NE - 10
11.12.2018 22:00:00 26,3 22,7 11 6 NE 1017,1 10
11.12.2018 21:00:00 26,0 22,0 11 6 ENE - 10
11.12.2018 20:00:00 26,0 22,0 11 6 ENE - 10
11.12.2018 19:00:00 26,9 22,8 11 6 E 1015,1 10
11.12.2018 18:00:00 28,0 23,0 18 10 ENE - 10
11.12.2018 17:00:00 28,0 23,0 18 10 ENE - 10
11.12.2018 16:00:00 29,4 22,9 21 11 E 1014,1 10
11.12.2018 15:00:00 30,0 23,0 18 10 NE - 10
11.12.2018 14:00:00 30,0 23,0 22 12 ENE - 10
11.12.2018 13:00:00 29,4 22,6 16 9 E 1015,6 10
11.12.2018 12:00:00 29,0 23,0 24 13 ENE - 10
11.12.2018 11:00:00 29,0 23,0 21 11 ENE - 10
11.12.2018 10:00:00 28,4 23,2 15 8 ENE 1016,8 10
11.12.2018 09:00:00 28,0 23,0 9 5 ENE - 10
11.12.2018 08:00:00 27,0 23,0 8 4 NE - 10
11.12.2018 07:00:00 24,9 21,8 5 3 NNW 1016,4 10
11.12.2018 06:00:00 23,0 21,0 5 3 NNW - 10
11.12.2018 05:00:00 23,0 22,0 8 4 NW - 10
11.12.2018 04:00:00 23,4 22,1 0 0 N 1014,9 10
11.12.2018 03:00:00 24,0 22,0 0 0 N - 10
11.12.2018 02:00:00 25,0 22,0 9 5 NE - 10
11.12.2018 01:00:00 25,0 22,0 21 11 NE - 10
11.12.2018 00:00:00 25,0 23,0 18 10 NE - 10
10.12.2018 23:00:00 25,0 24,0 15 8 NE - 10
10.12.2018 22:00:00 24,5 22,9 4 2 NE 1017,1 10
10.12.2018 21:00:00 24,0 22,0 5 3 N - 10
10.12.2018 20:00:00 25,0 22,0 8 4 N - 10
10.12.2018 19:00:00 25,3 23,0 8 4 NNE 1015,6 10
10.12.2018 18:00:00 27,0 23,0 5 3 NE - 10
10.12.2018 17:00:00 27,0 23,0 16 9 NNE - 10
10.12.2018 16:00:00 26,5 23,2 9 5 ENE 1014,9 10
10.12.2018 15:00:00 25,0 23,0 5 3 ENE - 10
10.12.2018 14:00:00 24,0 23,0 2 1 N - 10
10.12.2018 13:00:00 23,2 22,6 13 7 NNE 1016,4 6
10.12.2018 12:00:00 22,0 21,0 21 11 N - 2,0
10.12.2018 11:00:00 24,0 23,0 11 6 WSW - -
10.12.2018 10:00:00 25,6 23,9 18 10 NNW 1017,0 1,0
10.12.2018 09:00:00 26,0 23,0 8 4 N - 6
10.12.2018 08:00:00 24,0 23,0 11 6 N - 6
10.12.2018 07:00:00 23,8 22,8 8 4 E 1016,2 3,0
10.12.2018 06:00:00 23,0 22,0 5 3 NW - 10
10.12.2018 05:00:00 23,0 22,0 9 5 NE - 8
10.12.2018 04:00:00 23,5 22,5 5 3 NE 1014,4 10
10.12.2018 03:00:00 24,0 22,0 11 6 NNW - 10
10.12.2018 02:00:00 25,0 23,0 16 9 NNW - 5
10.12.2018 01:00:00 26,0 23,0 9 5 NW - 10
10.12.2018 00:00:00 26,0 24,0 13 7 E - 10
09.12.2018 23:00:00 27,0 24,0 11 6 E - 10
09.12.2018 22:00:00 26,4 23,7 13 7 E 1016,9 10
09.12.2018 21:00:00 26,0 24,0 13 7 E - 10
09.12.2018 20:00:00 27,0 24,0 13 7 E - 10
09.12.2018 19:00:00 26,6 23,6 13 7 NE 1015,0 8
09.12.2018 18:00:00 27,0 23,0 13 7 E - 10
09.12.2018 17:00:00 27,0 23,0 15 8 ENE - 10
09.12.2018 16:00:00 28,0 23,3 21 11 ENE 1014,3 10
09.12.2018 15:00:00 29,0 24,0 21 11 ENE - 10
09.12.2018 14:00:00 28,0 24,0 21 11 ENE - 10
09.12.2018 13:00:00 28,0 23,7 18 10 ENE 1016,1 10
09.12.2018 12:00:00 28,0 23,0 24 13 ENE - 8
09.12.2018 11:00:00 28,0 23,0 21 11 ENE - 10
09.12.2018 10:00:00 28,1 23,1 18 10 ENE 1016,6 10
09.12.2018 09:00:00 27,0 23,0 22 12 ENE - 10
09.12.2018 08:00:00 27,0 23,0 18 10 ENE - 10
09.12.2018 07:00:00 26,0 23,1 16 9 ENE 1016,2 10
09.12.2018 06:00:00 25,0 23,0 9 5 ENE - 10
09.12.2018 05:00:00 25,0 23,0 11 6 ENE - 10
09.12.2018 04:00:00 24,6 22,8 16 9 E 1014,7 10
09.12.2018 03:00:00 25,0 23,0 11 6 ENE - 10
09.12.2018 02:00:00 25,0 23,0 13 7 ESE - 8
09.12.2018 01:00:00 25,0 23,0 8 4 E - 10
09.12.2018 00:00:00 25,0 23,0 5 3 ENE - 10
08.12.2018 23:00:00 26,0 23,0 5 3 E - 10
08.12.2018 22:00:00 26,4 22,8 11 6 ESE 1017,4 10
08.12.2018 21:00:00 27,0 23,0 9 5 E - 10
08.12.2018 20:00:00 27,0 23,0 8 4 E - 10
08.12.2018 19:00:00 27,3 22,3 9 5 ESE 1015,7 10
08.12.2018 18:00:00 28,0 22,0 11 6 E - 10
08.12.2018 17:00:00 28,0 23,0 13 7 ENE - 10
08.12.2018 16:00:00 28,6 23,4 16 9 E 1014,5 10
08.12.2018 15:00:00 29,0 23,0 16 9 E - 10
08.12.2018 14:00:00 29,0 23,0 18 10 E - 10
08.12.2018 13:00:00 29,9 22,4 21 11 ENE 1015,2 10
08.12.2018 12:00:00 30,0 24,0 24 13 ENE - 10
08.12.2018 11:00:00 30,0 23,0 22 12 ENE - 10
08.12.2018 10:00:00 28,5 23,2 22 12 ENE 1015,7 10
08.12.2018 09:00:00 28,0 23,0 18 10 ENE - 10
08.12.2018 08:00:00 27,0 23,0 9 5 ENE - 10
08.12.2018 07:00:00 25,1 22,7 0 0 N 1014,9 10
08.12.2018 06:00:00 23,0 21,0 8 4 NW - 10
08.12.2018 05:00:00 23,0 21,0 4 2 NNW - 10
08.12.2018 04:00:00 22,5 20,7 11 6 NW 1014,4 10
08.12.2018 03:00:00 23,0 21,0 9 5 NW - 10
08.12.2018 02:00:00 23,0 21,0 8 4 NNW - 10
08.12.2018 01:00:00 23,0 21,0 11 6 NNW - 10
08.12.2018 00:00:00 24,0 21,0 5 3 NNW - 10
07.12.2018 23:00:00 24,0 22,0 5 3 NNW - 10
07.12.2018 22:00:00 25,7 21,7 0 0 N 1016,4 10
07.12.2018 21:00:00 26,0 22,0 9 5 E - 10
07.12.2018 20:00:00 26,0 22,0 5 3 SE - 10
07.12.2018 19:00:00 27,2 21,5 4 2 ESE 1015,0 10
07.12.2018 18:00:00 28,0 22,0 11 6 ESE - 10
07.12.2018 17:00:00 28,0 22,0 11 6 ESE - 10
07.12.2018 16:00:00 28,1 21,5 5 3 ESE 1013,7 10
07.12.2018 15:00:00 29,0 21,0 9 5 SSE - 10
07.12.2018 14:00:00 29,0 21,0 11 6 E - 10
07.12.2018 13:00:00 29,5 22,3 16 9 ESE 1014,3 8
07.12.2018 12:00:00 30,0 22,0 16 9 ESE - 10
07.12.2018 11:00:00 30,0 22,0 21 11 E - 10
07.12.2018 10:00:00 28,6 21,6 18 10 E 1015,1 10
07.12.2018 09:00:00 29,0 22,0 15 8 E - 10
07.12.2018 08:00:00 27,0 23,0 8 4 E - 10
07.12.2018 07:00:00 24,6 22,5 0 0 N 1014,4 10
07.12.2018 06:00:00 22,0 21,0 5 3 NW - 10
07.12.2018 05:00:00 22,0 20,0 9 5 NNW - 10
07.12.2018 04:00:00 22,0 20,5 5 3 NW 1013,3 10
07.12.2018 03:00:00 22,0 20,0 8 4 NW - 10
07.12.2018 02:00:00 22,0 21,0 5 3 NW - 10
07.12.2018 01:00:00 23,0 21,0 5 3 NW - 10
07.12.2018 00:00:00 24,0 21,0 8 4 NNW - 10
06.12.2018 23:00:00 24,0 22,0 8 4 NW - 10
06.12.2018 22:00:00 24,5 22,0 4 2 - 1016,1 10

tt = Température de l'air
td = dewpoint
ff = Vitesse du vent
dd = Direction du vent
ppp = reduced air pressure
vv = visibility

stations d'obs. à proximité